カタログに戻る

FENGYUN 1C DEB

運用中SSO
NORAD 38797·DEBRIS·🇨🇳 China

打ち上げ May 10, 1999 から Taiyuan Satellite Launch Center

Loading…

次のパス (今後24時間)

TLE

最新Source: Space-Track

元期: Sep 14, 2026, 22:53 UTC

1 38797U 99025EUM 26257.95386208  .00000018  00000-0  66313-4 0  9994
2 38797  99.4544 147.9151 0244232 235.6165 122.1663 13.61865168630425

AllMySatでFENGYUN 1C DEBをリアルタイム追跡

Download on the App Store